Location: Newark
(1.4692°S, 78.8175°W)
Time: 07:33:31
(UTC+00:00)

Hubble Space Telescope - Visible Passes

Search period start: 21 March 2019 00:00
Search period end: 31 March 2019 00:00
Orbit: 537 x 540 km, 28.5° (Epoch: 20 March)

Date Brightness Start Highest point End Pass type
(mag) Time Alt. Az. Time Alt. Az. Time Alt. Az.
21 Mar 1.9 10:12:07 18° NNW 10:14:43 38° NNE 10:18:34 10° E visible
21 Mar 3.2 23:47:19 10° WNW 23:50:15 19° NNW 23:53:11 10° NNE visible
22 Mar 1.2 10:02:47 34° NNW 10:04:14 55° NNE 10:08:17 10° ESE visible
23 Mar 0.6 09:53:27 73° NNW 09:53:46 81° NNE 09:57:54 10° ESE visible
24 Mar 1.3 09:44:06 53° SSE 09:44:06 53° SSE 09:47:24 10° SE visible
25 Mar 2.4 09:34:42 27° SSE 09:34:42 27° SSE 09:36:48 10° SE visible
26 Mar 3.3 09:25:15 15° SSE 09:25:15 15° SSE 09:26:07 10° SE visible
